SV2RIM-2 Weather Reports


Display with metric or nautical units.
time (UTC)temp
F
wind
direction
speed
MPH
gust
MPH
rain 1hr
in
rain 24hr
in
rain mn
in
humidity
%
barometer
mb
20240417213517 56 250 3.0 6.0 0.00 0.09 0.00 67 999.1
20240417212518 56 248 4.0 6.0 0.00 0.09 0.00 67 999.0
20240417211517 57 256 5.0 12.0 0.00 0.09 0.00 67 999.0
20240417210517 57 256 6.0 10.0 0.00 0.09 0.00 66 998.9
20240417205517 57 255 7.0 11.0 0.00 0.09 0.09 67 998.8
20240417204517 57 253 7.0 14.0 0.00 0.09 0.09 67 998.7
20240417203517 57 255 7.0 12.0 0.00 0.09 0.09 68 998.6
20240417202537 57 253 5.0 12.0 0.00 0.09 0.09 68 998.6
20240417201557 57 266 4.0 11.0 0.00 0.09 0.09 68 998.7
20240417200517 56 255 5.0 10.0 0.00 0.09 0.09 69 998.7
20240417195517 56 255 5.0 14.0 0.00 0.09 0.09 70 998.8
20240417194516 56 254 6.0 11.0 0.00 0.09 0.09 70 998.8
20240417193517 57 323 4.0 10.0 0.00 0.09 0.09 68 998.8
20240417192517 57 250 3.0 6.0 0.00 0.09 0.09 68 999.1
20240417191518 57 258 3.0 7.0 0.00 0.09 0.09 66 999.1
20240417190517 58 248 4.0 9.0 0.00 0.09 0.09 66 999.0
20240417185517 58 265 4.0 9.0 0.00 0.09 0.09 64 998.5
20240417184517 57 252 4.0 8.0 0.00 0.09 0.09 67 998.4
20240417183516 59 245 7.0 15.0 0.00 0.09 0.09 63 998.3
20240417182517 59 250 10.0 21.0 0.00 0.09 0.09 62 997.7
20240417181517 60 249 10.0 19.0 0.00 0.09 0.09 59 998.0
20240417180557 62 248 9.0 25.0 0.00 0.09 0.09 56 997.9
20240417175617 63 247 8.0 19.0 0.02 0.09 0.09 55 997.7
20240417174518 63 250 8.0 16.0 0.02 0.10 0.09 56 997.6
20240417173517 63 250 7.0 14.0 0.02 0.10 0.09 56 997.1
20240417172537 63 250 9.0 16.0 0.02 0.10 0.09 57 996.7
20240417171518 63 250 10.0 17.0 0.02 0.10 0.09 59 996.6
20240417170557 62 253 6.0 18.0 0.02 0.10 0.09 64 996.8
20240417165521 63 243 7.0 13.0 0.00 0.08 0.07 62 997.2
20240417164557 65 252 5.0 12.0 0.00 0.08 0.07 65 997.2
20240417163517 65 239 1.0 3.0 0.00 0.08 0.07 66 996.9
20240417162517 65 346 3.0 8.0 0.00 0.08 0.07 67 996.5
20240417161538 66 345 2.0 5.0 0.00 0.08 0.07 67 996.2
20240417160518 66 334 1.0 3.0 0.00 0.08 0.07 67 996.2
20240417155516 67 338 1.0 3.0 0.00 0.08 0.07 68 996.1
20240417154517 68 248 0.0 1.0 0.00 0.08 0.07 68 996.4
20240417153517 68 289 0.0 2.0 0.01 0.08 0.07 69 996.2
20240417152517 69 259 0.0 1.0 0.01 0.08 0.07 71 996.3
20240417151537 73 231 0.0 1.0 0.01 0.08 0.07 64 996.3
20240417150537 71 260 0.0 2.0 0.01 0.08 0.07 64 996.3
20240417145518 69 273 1.0 2.0 0.01 0.08 0.07 69 996.3
20240417144538 69 268 1.0 2.0 0.01 0.08 0.07 73 996.4
20240417143518 71 340 0.0 2.0 0.00 0.07 0.05 74 996.6
20240417142517 72 237 0.0 1.0 0.00 0.07 0.05 76 996.5
20240417141518 74 279 1.0 4.0 0.00 0.07 0.05 77 996.6
20240417140517 80 276 1.0 2.0 0.00 0.07 0.05 63 996.7
20240417135517 74 329 0.0 2.0 0.00 0.07 0.05 64 996.7
20240417134517 71 290 1.0 1.0 0.00 0.07 0.05 66 996.9
20240417133517 71 231 0.0 2.0 0.00 0.07 0.05 67 996.9
20240417132517 71 210 0.0 2.0 0.00 0.07 0.05 70 997.0
20240417131517 70 280 0.0 1.0 0.00 0.07 0.05 76 997.2
20240417130517 72 229 1.0 2.0 0.00 0.07 0.05 79 997.4
20240417125517 74 255 1.0 2.0 0.00 0.07 0.05 77 997.3
20240417124517 76 234 1.0 3.0 0.01 0.07 0.05 74 997.4
20240417123517 77 281 1.0 2.0 0.01 0.07 0.05 62 997.6
20240417122517 72 257 1.0 2.0 0.01 0.07 0.05 69 997.9
20240417121517 71 246 1.0 1.0 0.01 0.07 0.05 70 997.9
20240417120557 71 244 1.0 2.0 0.01 0.07 0.05 72 997.9
20240417115517 72 295 1.0 2.0 0.01 0.07 0.05 73 998.0
20240417114538 74 241 1.0 2.0 0.00 0.05 0.04 72 998.0
20240417113517 75 240 1.0 2.0 0.00 0.05 0.04 71 998.1
20240417112518 75 236 1.0 2.0 0.00 0.05 0.04 72 998.2
20240417111517 77 302 1.0 2.0 0.00 0.05 0.04 69 998.3
20240417110537 74 306 1.0 2.0 0.00 0.05 0.04 72 998.5
20240417105518 74 243 1.0 2.0 0.00 0.05 0.04 71 998.7
20240417104517 73 228 1.0 2.0 0.00 0.05 0.04 73 998.7
20240417103537 72 219 0.0 2.0 0.00 0.05 0.04 74 998.8
20240417102517 74 212 1.0 2.0 0.00 0.05 0.04 71 999.1
20240417101538 73 300 1.0 2.0 0.00 0.05 0.04 72 999.1
20240417100537 73 210 1.0 3.0 0.00 0.05 0.04 74 999.3
20240417095517 74 259 1.0 2.0 0.00 0.05 0.04 70 999.2
20240417094517 75 265 1.0 1.0 0.00 0.05 0.04 67 999.4
20240417093517 73 296 1.0 1.0 0.00 0.05 0.04 68 999.4
20240417092517 72 191 1.0 2.0 0.00 0.05 0.04 68 999.6
20240417091517 70 200 1.0 2.0 0.00 0.05 0.04 72 999.7
20240417090518 70 252 0.0 1.0 0.00 0.05 0.04 69 999.9
20240417085517 67 234 0.0 1.0 0.00 0.07 0.04 76 1000.1
20240417084538 67 338 1.0 3.0 0.00 0.07 0.04 76 1000.1
20240417083537 67 332 1.0 2.0 0.01 0.07 0.04 71 1000.2
20240417082537 65 282 0.0 1.0 0.01 0.07 0.04 75 1000.1
20240417081517 63 341 1.0 2.0 0.01 0.07 0.04 77 1000.4
20240417080517 62 345 2.0 5.0 0.01 0.07 0.04 78 1000.5
20240417075517 62 234 0.0 1.0 0.01 0.08 0.04 77 1000.5
20240417074537 62 204 1.0 4.0 0.01 0.08 0.04 74 1000.4
20240417073518 61 192 2.0 5.0 0.00 0.07 0.03 75 1000.6
20240417072537 60 247 3.0 8.0 0.00 0.07 0.03 77 1000.4
20240417071517 60 264 3.0 10.0 0.00 0.08 0.03 77 1000.2
20240417070517 60 250 4.0 8.0 0.00 0.08 0.03 76 1000.2
20240417065517 60 255 5.0 9.0 0.00 0.08 0.03 75 1000.4
20240417064519 60 256 5.0 10.0 0.00 0.08 0.03 75 1000.5
20240417063518 60 254 4.0 8.0 0.01 0.08 0.03 76 1000.5
20240417062517 60 311 4.0 8.0 0.01 0.08 0.03 75 1000.6
20240417061517 60 315 3.0 6.0 0.01 0.08 0.03 75 1000.9
20240417060517 59 289 4.0 10.0 0.01 0.08 0.03 76 1001.1
20240417055517 58 327 4.0 10.0 0.01 0.08 0.03 78 1001.2
20240417054517 59 263 3.0 7.0 0.01 0.08 0.03 77 1001.3
20240417053517 59 326 2.0 5.0 0.00 0.07 0.02 76 1001.3
20240417052518 59 323 3.0 7.0 0.00 0.07 0.02 76 1001.0
20240417051517 59 345 2.0 3.0 0.00 0.07 0.02 76 1000.8
20240417050517 59 332 2.0 3.0 0.01 0.07 0.02 76 1000.7
20240417045517 59 340 2.0 4.0 0.01 0.07 0.02 77 1000.8
20240417044517 59 340 1.0 3.0 0.01 0.07 0.02 76 1000.8
20240417043558 59 335 1.0 2.0 0.01 0.07 0.02 76 1000.8
20240417042517 59 332 1.0 2.0 0.01 0.08 0.02 75 1000.9
20240417041558 59 326 1.0 2.0 0.01 0.08 0.02 75 1000.9
20240417040518 58 326 1.0 3.0 0.00 0.07 0.01 76 1001.0
20240417035517 59 344 2.0 3.0 0.00 0.07 0.01 75 1001.1
20240417034539 59 301 0.0 1.0 0.00 0.07 0.01 75 1001.2
20240417033517 59 225 0.0 1.0 0.01 0.07 0.01 75 1001.2
20240417032517 58 7 0.0 1.0 0.01 0.07 0.01 75 1001.4
20240417031517 58 339 1.0 3.0 0.01 0.07 0.01 75 1001.2
20240417030517 58 338 3.0 5.0 0.01 0.07 0.01 75 1001.1
20240417025517 58 329 2.0 5.0 0.01 0.07 0.01 76 1001.4
20240417024517 59 345 3.0 7.0 0.01 0.07 0.01 75 1001.5
20240417023517 58 321 2.0 3.0 0.00 0.05 0.00 77 1001.8
20240417022517 59 322 2.0 4.0 0.00 0.05 0.00 76 1001.7
20240417021517 61 245 0.0 1.0 0.00 0.05 0.00 72 1001.6
20240417020517 61 191 0.0 0.0 0.00 0.05 0.00 72 1001.9
20240417015517 61 212 1.0 2.0 0.00 0.05 0.00 70 1002.0
20240417014517 61 225 1.0 3.0 0.00 0.05 0.00 70 1001.9
20240417013517 61 243 1.0 3.0 0.00 0.05 0.00 70 1002.0
20240417012517 61 225 0.0 1.0 0.00 0.05 0.00 69 1001.9
20240417011517 61 352 1.0 2.0 0.00 0.05 0.00 70 1002.1
20240417010517 61 288 2.0 4.0 0.00 0.05 0.00 70 1002.0
20240417005520 61 333 2.0 5.0 0.00 0.05 0.00 70 1002.0
20240417004517 61 339 0.0 3.0 0.00 0.05 0.00 70 1002.2
20240417003557 61 209 1.0 4.0 0.00 0.05 0.00 68 1002.1
20240417002518 63 186 1.0 4.0 0.00 0.05 0.00 65 1002.1
20240417001557 61 254 6.0 12.0 0.00 0.05 0.00 70 1002.2
20240417000517 61 315 2.0 6.0 0.00 0.05 0.00 71 1002.6
20240416235517 62 351 2.0 6.0 0.00 0.05 0.00 69 1003.0
20240416234517 61 282 1.0 4.0 0.00 0.05 0.00 69 1003.3
20240416233517 61 200 1.0 2.0 0.00 0.05 0.00 69 1003.6
20240416232517 62 241 1.0 3.0 0.00 0.05 0.00 67 1003.4
20240416231518 61 356 1.0 3.0 0.00 0.05 0.00 68 1003.3
20240416230537 61 348 3.0 6.0 0.00 0.05 0.00 69 1003.4
20240416225517 61 309 2.0 5.0 0.00 0.05 0.00 69 1003.4
20240416224517 61 341 3.0 6.0 0.00 0.05 0.00 69 1003.7
20240416223517 61 341 3.0 7.0 0.00 0.05 0.00 70 1003.5
20240416222517 61 322 3.0 7.0 0.00 0.05 0.00 69 1003.9
20240416221518 61 341 2.0 5.0 0.00 0.05 0.00 70 1004.0
20240416220518 61 347 2.0 5.0 0.00 0.05 0.00 70 1004.1
20240416215517 61 335 2.0 6.0 0.00 0.05 0.00 69 1004.2
20240416214537 61 345 3.0 6.0 0.00 0.05 0.00 69 1004.3